Track PLEIADES 1B now! 10-day predictions PLEIADES 1B is classified as:
1 39019U 12068A 24256.14570464 .00001961 00000-0 43155-3 0 9997 2 39019 98.1897 329.4325 0001223 89.0487 271.0852 14.58560434627110